Tracking 30918 objects as of 2-Jul-2025
HD Live streaming from Space Station
objects crossing your sky now

SL-16 DEB

Track SL-16 DEB now!
10-day predictions


NORAD ID: 39886
Int'l Code: 1993-016BL
Perigee: 619.6 km
Apogee: 686.7 km
Inclination: 71.0 °
Period: 97.6 minutes
Semi major axis: 7024 km
RCS: 0.0136 m2 (small)
Launch date: March 26, 1993
Source: Commonwealth of Independent States (former USSR) (CIS)
Launch site: TYURATAM MISSILE AND SPACE COMPLEX (TTMTR)

Note: This is SATELLITE DEBRIS
Your satellite tracking list
Your tracking list is empty




NASA's NSSDC Master Catalog

Two Line Element Set (TLE):
1 39886U 93016BL  25181.28876080  .00003092  00000-0  46321-3 0  9992
2 39886  71.0089  45.4319 0047810  85.1145 275.5465 14.74730499590333
Source of the keplerian elements: AFSPC